[[{"header":{"parameterUnit":"m.s-1","parameterCategory":2,"la1":30.2991,"la2":30.254,"lo1":-89.0895,"lo2":-89.0444,"dy":0.0017,"dx":0.0017,"nx":28,"ny":28,"refTime":"2024-02-05T03:00:00:Z","depth":"0","parameterNumber":2,"parameterNumberName":"U-component_of_CURRENTS"},"data":[0,0,0,0,0,0,0,0,0,0,0,0,0,0,0,0,0,0,0,0,0,0,0,0,0,0,0,0,0,0,0,0,0,0,0,0,0,0,0,0,0,0,0,0,0,0,0,0,0,0,0,0,0,0,0,0,0,0,0.3655,0.3656,0,0.367,0.367,0.367,0.364,0.3639,0.3638,0.3638,0.3612,0.3612,0.3612,0,0,0,0,0,0,0,0,0,0,0,0,0,0.3616,0.3617,0.3655,0.3656,0.3656,0.367,0.367,0.3669,0.364,0.3639,0.3638,0.3638,0.3612,0.3612,0.3612,0,0,0,0,0,0,0,0,0,0,0,0,0,0.3628,0.3617,0.3655,0.3646,0.3646,0.367,0.367,0.3669,0.364,0.3639,0.3638,0.3637,0.3612,0.3612,0.3612,0.3629,0,0,0.3612,0.3611,0,0,0,0,0,0,0,0,0.3628,0.3629,0.3647,0.3647,0.3647,0.3656,0.3647,0.3655,0.364,0.3638,0.3638,0.3637,0.3626,0.3625,0.3625,0.3628,0.3627,0.3612,0.3611,0.3611,0.3611,0,0,0,0,0,0,0,0.3627,0.3629,0.3657,0.3648,0.3648,0.3647,0.3647,0.3648,0.3633,0.3638,0.3637,0.3645,0.3625,0.3625,0.3624,0.3626,0.3612,0.3611,0.3611,0.3611,0.3677,0.3679,0,0,0,0,0,0,0.3634,0.3628,0.3657,0.3658,0.3639,0.3648,0.3648,0.365,0.3634,0.3632,0.3646,0.3644,0.3626,0.3624,0.3623,0.3667,0.3611,0.3611,0.3611,0.3675,0.3678,0.368,0,0,0,0,0,0,0.3633,0.3636,0.3656,0.3647,0.365,0.365,0.3653,0.3651,0.3656,0.3641,0.3637,0.3654,0.3625,0.3623,0.3637,0.3665,0.3611,0.3611,0.3673,0.3676,0.3679,0.374,0,0,0,0,0,0,0.3631,0.3635,0.3642,0.3647,0.3651,0.3677,0.3654,0.3652,0.3664,0.3662,0.3647,0.3643,0.3624,0.3638,0.3637,0.3664,0.3611,0.3671,0.3674,0.3678,0.3736,0.3745,0.3752,0,0,0,0,0,0.363,0.3639,0.3642,0.3646,0.3659,0.3678,0.368,0.3674,0.3666,0.3674,0.3669,0.3644,0.366,0.3639,0.3638,0.3665,0.3669,0.3673,0.3677,0.3732,0.3743,0.3752,0,0,0,0,0,0,0.362,0.3638,0.3641,0.3653,0.3671,0.3675,0.3682,0.3684,0.3687,0.3684,0.3664,0.3661,0.3689,0.3672,0.365,0.3697,0.3662,0.3666,0.3704,0.3714,0.3723,0.3744,0.3611,0,0,0,0,0,0.3626,0.3637,0.3656,0.3667,0.3676,0.3684,0.3692,0.3694,0.3698,0.3698,0.3691,0.3691,0.3706,0.3705,0.3712,0.3732,0.3742,0.3751,0.376,0.3766,0.3785,0.3828,0.3842,0.3693,0.3693,0.3693,0,0,0.3624,0.3638,0.3643,0.3667,0.3675,0.3701,0.3685,0.3704,0.3729,0.3696,0.372,0.3722,0.3722,0.3748,0.3759,0.3734,0.3816,0.3772,0.3778,0.3793,0.3834,0.3849,0.3862,0.3696,0.3696,0.3695,0,0,0.363,0.3641,0.3655,0.3676,0.3704,0.3716,0.3727,0.3742,0.375,0.3778,0.3772,0.3795,0.3797,0.3813,0.3819,0.3881,0.3865,0.3878,0.3927,0.3968,0.3981,0.3992,0.4027,0.4041,0.3873,0.3873,0.3873,0,0.363,0.3648,0.3663,0.3689,0.371,0.3727,0.3753,0.3775,0.3794,0.3815,0.3792,0.384,0.3835,0.389,0.3911,0.3901,0.3917,0.3884,0.3979,0.399,0.4001,0.4034,0.4048,0.3877,0.3876,0.3876,0.3875,0,0.3648,0.367,0.3681,0.3722,0.375,0.3773,0.3812,0.3841,0.3853,0.3875,0.3928,0.3929,0.3958,0.3963,0.3953,0.403,0.4017,0.399,0.3951,0.4019,0.405,0.4064,0.3882,0.388,0.3879,0.3878,0,0,0.3618,0.3681,0.3683,0.3705,0.3768,0.3785,0.385,0.3905,0.3951,0.3971,0.4027,0.4061,0.4067,0.4078,0.4075,0.4108,0.4193,0.4082,0.4083,0.4114,0.4288,0.4249,0.4259,0.4179,0.4181,0.4184,0.428,0,0.3623,0.3665,0.3707,0.3753,0.3776,0.3831,0.3887,0.3946,0.3997,0.4058,0.4086,0.4137,0.411,0.413,0.4165,0.4196,0.4233,0.417,0.4221,0.4223,0.4177,0.4275,0.4139,0.4211,0.4294,0.4296,0.4298,0,0.362,0.3649,0.3692,0.3762,0.3778,0.382,0.3914,0.3972,0.408,0.4122,0.4191,0.4218,0.4296,0.4248,0.434,0.4301,0.4309,0.4317,0.432,0.4275,0.421,0.4157,0.4233,0.4135,0.4319,0.4317,0.4315,0,0.3566,0.3635,0.3665,0.3689,0.3778,0.3815,0.3872,0.3985,0.4049,0.4178,0.4229,0.4321,0.4366,0.4406,0.4434,0.4397,0.4522,0.4465,0.4438,0.4435,0.4326,0.4308,0.431,0.4531,0.4531,0.4531,0.4531,0,0.3544,0.3563,0.364,0.3652,0.3703,0.3781,0.3861,0.3945,0.4073,0.415,0.4254,0.4333,0.4408,0.4479,0.4487,0.4524,0.4568,0.4483,0.4472,0.4343,0.4327,0.424,0.4197,0.4535,0.4534,0.4533,0.4532,0,0.3478,0.3527,0.3564,0.3649,0.3677,0.3716,0.3842,0.3895,0.4036,0.4146,0.4189,0.4366,0.4478,0.4536,0.4622,0.4588,0.4506,0.4615,0.4463,0.4432,0.429,0.4255,0.41,0.3978,0.4608,0.4608,0.4608,0,0.3446,0.3457,0.3541,0.3555,0.3592,0.3664,0.3704,0.386,0.3926,0.4156,0.419,0.4369,0.4472,0.4611,0.4613,0.4646,0.45,0.4511,0.4413,0.4299,0.4252,0.4065,0.3959,0.4294,0.4291,0.4289,0.4287,0,0.3382,0.3416,0.3439,0.3475,0.3511,0.3561,0.3638,0.369,0.3867,0.3974,0.4139,0.4262,0.4446,0.4466,0.4533,0.4522,0.4306,0.4465,0.4387,0.4058,0.3815,0.3685,0.4214,0.4267,0.4269,0.4271,0.4272,0.4273,0.3323,0.3325,0.3353,0.3371,0.3404,0.3422,0.342,0.3515,0.361,0.3731,0.3967,0.4083,0.4257,0.4359,0.4331,0.4216,0.4175,0.4093,0.4079,0.3913,0.3731,0.4226,0.4236,0.4238,0.424,0.4241,0.4242,0,0.3226,0.3227,0.324,0.3243,0.3208,0.3283,0.3328,0.33,0.3333,0.3527,0.3655,0.383,0.3882,0.3982,0.3997,0.3869,0.3649,0.3755,0.3466,0.3394,0.3886,0.3809,0.3679,0.3679,0.3679,0.368,0.368,0.368,0.3173,0.3129,0.3127,0.3032,0.3026,0.2947,0.2939,0.294,0.3031,0.3121,0.3231,0.3398,0.3684,0.3788,0.37,0.3598,0.3321,0.3166,0.3141,0.352,0.3549,0.3576,0.3494,0.33,0.33,0.2493,0.2487,0.2483]},{"header":{"parameterUnit":"m.s-1","parameterCategory":2,"la1":30.2991,"la2":30.254,"lo1":-89.0895,"lo2":-89.0444,"dy":0.0017,"dx":0.0017,"nx":28,"ny":28,"refTime":"2024-02-05T03:00:00:Z","depth":"0","parameterNumber":3,"parameterNumberName":"V-component_of_CURRENTS"},"data":[0,0,0,0,0,0,0,0,0,0,0,0,0,0,0,0,0,0,0,0,0,0,0,0,0,0,0,0,0,0,0,0,0,0,0,0,0,0,0,0,0,0,0,0,0,0,0,0,0,0,0,0,0,0,0,0,0,0,0.0157,0.0156,0,0.0101,0.01,0.0099,0.0057,0.0057,0.0057,0.0057,-0.002,-0.0022,-0.0024,0,0,0,0,0,0,0,0,0,0,0,0,0,0.0159,0.0159,0.0157,0.0156,0.0156,0.0101,0.01,0.0099,0.0057,0.0057,0.0057,0.0057,-0.0019,-0.0022,-0.0024,0,0,0,0,0,0,0,0,0,0,0,0,0,0.0134,0.016,0.0157,0.013,0.0127,0.0101,0.01,0.0099,0.0057,0.0057,0.0057,0.0057,-0.0019,-0.0021,-0.0024,-0.0035,0,0,-0.0033,-0.0034,0,0,0,0,0,0,0,0,0.0136,0.0134,0.0134,0.0131,0.0128,0.0088,0.0073,0.0054,0.0057,0.0082,0.0057,0.0056,0.0016,0.001,-0.0002,-0.0039,-0.0042,-0.0033,-0.0034,-0.0036,-0.0036,0,0,0,0,0,0,0,0.0138,0.0136,0.0132,0.0134,0.013,0.0097,0.0094,0.0069,0.0049,0.0079,0.0077,0.0074,0.0014,0.0,-0.0005,-0.0043,-0.0033,-0.0035,-0.0037,-0.0038,-0.009,-0.009,0,0,0,0,0,0,0.0153,0.0138,0.0134,0.0131,0.0134,0.0098,0.0094,0.0099,0.005,0.0043,0.0074,0.0072,0.0005,-0.0001,-0.0007,-0.0006,-0.0036,-0.0038,-0.004,-0.0091,-0.009,-0.009,0,0,0,0,0,0,0.0153,0.0153,0.0137,0.0134,0.013,0.0099,0.0105,0.0098,0.009,0.0046,0.0038,0.0073,0.0005,-0.0003,-0.0021,-0.0009,-0.004,-0.0042,-0.0091,-0.0091,-0.009,-0.0013,0,0,0,0,0,0,0.0154,0.0154,0.0163,0.0136,0.0131,0.0134,0.0105,0.0098,0.0089,0.0086,0.0043,0.0035,0.0004,-0.0016,-0.0024,-0.0014,-0.0044,-0.0091,-0.0091,-0.009,-0.0016,-0.001,-0.0005,0,0,0,0,0,0.0154,0.0174,0.0164,0.0164,0.0145,0.0135,0.0129,0.0104,0.009,0.0093,0.0063,0.0037,-0.0019,-0.0018,-0.0027,-0.0018,-0.0092,-0.0091,-0.009,-0.0019,-0.0012,-0.0006,0,0,0,0,0,0,0.0178,0.0171,0.016,0.0175,0.0161,0.0129,0.013,0.0112,0.0089,0.0085,0.0042,0.0033,0.0019,-0.001,-0.0008,-0.0033,-0.006,-0.0061,-0.0003,0.0003,0.0009,0.0035,-0.0047,0,0,0,0,0,0.0189,0.0201,0.0184,0.0194,0.0191,0.0161,0.0154,0.0137,0.0114,0.0103,0.0074,0.004,0.0014,0.0002,-0.0028,-0.0036,-0.0069,-0.0038,-0.0033,-0.0028,-0.0012,-0.0058,-0.0055,-0.0088,-0.0088,-0.0088,0,0,0.0199,0.0197,0.0203,0.02,0.0185,0.0196,0.0156,0.0151,0.0159,0.0099,0.0098,0.0058,0.0015,0.0003,-0.0006,-0.0018,-0.0036,-0.0027,-0.0022,-0.001,-0.0057,-0.0054,-0.0051,-0.0088,-0.0088,-0.0088,0,0,0.023,0.0226,0.0249,0.0245,0.0234,0.022,0.0225,0.02,0.0187,0.0178,0.0136,0.0107,0.0069,0.0042,0.0022,0.0041,-0.0008,0.0027,0.008,0.0036,0.0039,0.004,0.0004,0.0002,0.0033,0.0033,0.0033,0,0.0242,0.0273,0.0251,0.0272,0.028,0.024,0.0267,0.0249,0.0221,0.0219,0.0189,0.013,0.0089,0.0078,0.0082,0.0054,0.0024,0.0061,0.0044,0.0045,0.0046,0.0008,0.0005,0.0037,0.0036,0.0036,0.0035,0,0.0291,0.0315,0.0328,0.0347,0.035,0.0365,0.0346,0.0345,0.0322,0.03,0.0277,0.0212,0.0182,0.0156,0.0125,0.0113,0.0088,0.0055,0.0032,0.0054,0.0012,0.0008,0.0042,0.0041,0.004,0.0039,0,0,0.0329,0.0359,0.0367,0.0394,0.0395,0.0409,0.0423,0.043,0.0452,0.0394,0.0408,0.0339,0.0297,0.0272,0.0218,0.0175,0.0145,0.0126,0.0122,0.0099,0.0053,0.004,0.0033,0.0108,0.0108,0.0108,0.0023,0,0.0378,0.0443,0.0441,0.0504,0.0538,0.0517,0.054,0.0536,0.0519,0.052,0.0437,0.0422,0.0343,0.0329,0.0274,0.0183,0.0136,0.0172,0.0028,0.0024,0.0016,0.0028,0.0066,-0.0006,0.0018,0.0017,0.0017,0,0.0437,0.0477,0.0551,0.06,0.0613,0.0644,0.0688,0.0703,0.0684,0.0666,0.0624,0.0557,0.0492,0.0415,0.0268,0.0295,0.0187,0.0103,0.0097,0.0058,0.0002,-0.0027,-0.0016,-0.0209,0.0009,0.0009,0.001,0,0.0495,0.0558,0.0627,0.0643,0.0688,0.0721,0.0746,0.0753,0.079,0.0764,0.0776,0.0673,0.0638,0.0483,0.0305,0.0287,0.0138,0.0087,-0.003,-0.0032,-0.0041,-0.0043,-0.0223,-0.002,-0.002,-0.002,-0.0019,0,0.0561,0.0614,0.0666,0.0704,0.0799,0.0796,0.0887,0.0893,0.0918,0.0984,0.0861,0.0881,0.0654,0.0537,0.035,0.0158,0.0168,-0.0011,-0.0052,-0.0013,-0.0012,-0.0212,-0.0318,-0.0023,-0.0022,-0.0022,-0.0021,0,0.0619,0.0646,0.0732,0.08,0.0832,0.0903,0.0996,0.1059,0.1061,0.1143,0.1139,0.1047,0.0899,0.0657,0.0419,0.0241,-0.0064,-0.0037,0.003,-0.0002,-0.0291,-0.0392,-0.0608,-0.0676,-0.0177,-0.0177,-0.0178,0,0.0655,0.0708,0.0815,0.0879,0.0919,0.102,0.1095,0.1136,0.1217,0.1259,0.131,0.1191,0.1146,0.0779,0.0437,0.0108,-0.0083,-0.008,-0.0115,-0.0294,-0.0439,-0.0517,-0.0564,-0.0101,-0.0101,-0.0101,-0.0101,0,0.0726,0.0765,0.084,0.0977,0.1075,0.1193,0.1306,0.1395,0.1459,0.1533,0.1608,0.1573,0.1227,0.0918,0.0454,0.0221,-0.0196,-0.0089,-0.0297,-0.0406,-0.0482,-0.0569,-0.006,-0.0101,-0.0101,-0.0101,-0.0101,-0.0101,0.0782,0.0851,0.0952,0.1087,0.1203,0.1356,0.1469,0.1602,0.176,0.1891,0.1846,0.1851,0.1385,0.0764,0.0405,-0.0203,-0.0219,-0.0382,-0.0492,-0.0558,-0.0618,-0.0101,-0.0177,-0.0177,-0.0177,-0.0178,-0.0178,0,0.085,0.0928,0.1051,0.121,0.1348,0.1402,0.1604,0.1736,0.1947,0.2076,0.2149,0.1959,0.1372,0.0768,-0.0064,-0.0515,-0.0667,-0.0764,-0.0875,-0.0905,-0.0463,-0.0453,-0.0564,-0.0564,-0.0564,-0.0563,-0.0563,-0.0563,0.0884,0.1007,0.1073,0.1307,0.1423,0.1624,0.1749,0.1958,0.2114,0.2303,0.2345,0.233,0.1885,0.0356,-0.0682,-0.0924,-0.1209,-0.1295,-0.145,-0.1164,-0.1137,-0.1112,-0.1128,-0.1379,-0.138,-0.1813,-0.1818,-0.1822]}],[{"header":{"parameterUnit":"m.s-1","parameterCategory":2,"la1":30.2991,"la2":30.254,"lo1":-89.0895,"lo2":-89.0444,"dy":0.0017,"dx":0.0017,"nx":28,"ny":28,"refTime":"2024-02-05T03:00:00:Z","depth":"2","parameterNumber":2,"parameterNumberName":"U-component_of_CURRENTS"},"data":[0,0,0,0,0,0,0,0,0,0,0,0,0,0,0,0,0,0,0,0,0,0,0,0,0,0,0,0,0,0,0,0,0,0,0,0,0,0,0,0,0,0,0,0,0,0,0,0,0,0,0,0,0,0,0,0,0,0,0.3249,0.325,0,0.3269,0.3269,0.3269,0.3258,0.3257,0.3257,0.3257,0.3252,0.3252,0.3252,0,0,0,0,0,0,0,0,0,0,0,0,0,0.3207,0.3208,0.3249,0.325,0.325,0.3269,0.3269,0.3269,0.3258,0.3257,0.3257,0.3257,0.3252,0.3252,0.3252,0,0,0,0,0,0,0,0,0,0,0,0,0,0.3223,0.3208,0.3249,0.325,0.325,0.3269,0.3269,0.3269,0.3258,0.3257,0.3257,0.3257,0.3252,0.3252,0.3252,0.326,0,0,0.3252,0.3252,0,0,0,0,0,0,0,0,0.3222,0.3224,0.3249,0.325,0.325,0.3264,0.3253,0.3266,0.3258,0.3251,0.3257,0.3257,0.3256,0.3256,0.3256,0.3259,0.3259,0.3252,0.3252,0.3253,0.3253,0,0,0,0,0,0,0,0.3221,0.3223,0.3253,0.325,0.325,0.3251,0.3252,0.3255,0.3252,0.3252,0.3252,0.326,0.3256,0.3255,0.3255,0.3259,0.3252,0.3252,0.3253,0.3253,0.3324,0.3326,0,0,0,0,0,0,0.3226,0.3222,0.3253,0.3254,0.3239,0.3252,0.3254,0.3257,0.3252,0.3253,0.326,0.3259,0.3255,0.3255,0.3255,0.3309,0.3253,0.3253,0.3253,0.3322,0.3325,0.3327,0,0,0,0,0,0,0.3225,0.3228,0.3252,0.3242,0.3245,0.3254,0.3257,0.3257,0.3271,0.326,0.3259,0.3276,0.3255,0.3255,0.3276,0.3307,0.3253,0.3253,0.332,0.3323,0.3326,0.3387,0,0,0,0,0,0,0.3223,0.3227,0.3237,0.3242,0.3246,0.3274,0.3258,0.3258,0.3278,0.3277,0.3273,0.3271,0.3255,0.3276,0.3276,0.3306,0.3253,0.3318,0.3322,0.3325,0.3383,0.3392,0.3399,0,0,0,0,0,0.3221,0.3231,0.3237,0.3242,0.3257,0.3275,0.3277,0.3279,0.3279,0.3289,0.3292,0.3272,0.3298,0.3278,0.3277,0.3308,0.3316,0.3321,0.3325,0.3379,0.339,0.3399,0,0,0,0,0,0,0.3215,0.3232,0.3238,0.3252,0.327,0.3275,0.3286,0.3292,0.3303,0.3305,0.3291,0.329,0.3324,0.331,0.3288,0.3341,0.3306,0.331,0.3348,0.3358,0.3366,0.3385,0.3253,0,0,0,0,0,0.3221,0.3234,0.3252,0.3265,0.3276,0.3286,0.3297,0.3303,0.3312,0.3316,0.3316,0.3322,0.334,0.3343,0.3353,0.3376,0.3384,0.3398,0.3406,0.3413,0.343,0.347,0.3483,0.334,0.334,0.334,0,0,0.3222,0.3235,0.3242,0.3266,0.3277,0.3301,0.3291,0.3314,0.334,0.3315,0.3347,0.3354,0.3355,0.3386,0.34,0.3377,0.346,0.3418,0.3424,0.3438,0.3476,0.349,0.3502,0.3343,0.3342,0.3342,0,0,0.3229,0.3243,0.3258,0.3279,0.3309,0.332,0.3334,0.3353,0.3367,0.3398,0.3398,0.3427,0.3436,0.3452,0.3459,0.352,0.3508,0.3522,0.3571,0.3609,0.3621,0.3632,0.3664,0.3677,0.3519,0.3519,0.3519,0,0.3232,0.325,0.3266,0.3291,0.3312,0.3334,0.3359,0.3383,0.3409,0.3432,0.3417,0.3472,0.3471,0.3525,0.3549,0.354,0.3556,0.3529,0.362,0.3631,0.364,0.3671,0.3684,0.3522,0.3522,0.3522,0.3521,0,0.3248,0.3272,0.3284,0.3324,0.3352,0.3376,0.3415,0.3448,0.3468,0.3492,0.355,0.3557,0.3591,0.3598,0.3591,0.3667,0.3656,0.363,0.3592,0.3659,0.3686,0.3699,0.3527,0.3526,0.3525,0.3524,0,0,0.3224,0.3283,0.3287,0.3309,0.337,0.3388,0.3452,0.3506,0.3554,0.3583,0.3642,0.368,0.3694,0.3706,0.3707,0.374,0.3823,0.372,0.372,0.3749,0.3913,0.3863,0.3872,0.3812,0.3815,0.3817,0.3905,0,0.323,0.327,0.3308,0.3354,0.3376,0.3432,0.3488,0.3548,0.3599,0.3664,0.3697,0.3754,0.3732,0.376,0.3794,0.3825,0.3861,0.3802,0.3849,0.385,0.3795,0.3887,0.3581,0.3631,0.3918,0.392,0.3921,0,0.3228,0.3255,0.3297,0.3366,0.3383,0.3426,0.3521,0.3576,0.3683,0.3731,0.38,0.3832,0.3911,0.3871,0.3959,0.3924,0.3934,0.3942,0.3945,0.3888,0.3825,0.3611,0.3643,0.3943,0.3941,0.3939,0.3938,0,0.3179,0.3245,0.3275,0.3298,0.3386,0.3427,0.3483,0.3593,0.3656,0.3785,0.3842,0.3932,0.3983,0.4021,0.405,0.4017,0.4132,0.408,0.4042,0.4038,0.3782,0.3752,0.4141,0.4141,0.4141,0.4141,0.4141,0,0.3157,0.3179,0.3255,0.3269,0.3325,0.3399,0.3482,0.3565,0.3691,0.3767,0.387,0.3947,0.4024,0.4091,0.4099,0.4126,0.4174,0.4083,0.407,0.3796,0.3767,0.4033,0.402,0.4144,0.4143,0.4143,0.4142,0,0.3097,0.3146,0.3185,0.3272,0.3303,0.3344,0.3472,0.3525,0.3665,0.3772,0.3819,0.3985,0.4087,0.4143,0.4223,0.4184,0.4214,0.4201,0.3881,0.383,0.4079,0.4068,0.418,0.4179,0.4178,0.4178,0.4177,0,0.3068,0.3081,0.3168,0.3187,0.3227,0.3302,0.3347,0.3499,0.3563,0.378,0.3815,0.3982,0.4066,0.4186,0.4168,0.419,0.4233,0.3898,0.3782,0.4114,0.409,0.408,0.4069,0.3463,0.3456,0.3451,0.3447,0,0.3009,0.3047,0.3073,0.3116,0.316,0.3209,0.329,0.3341,0.351,0.3612,0.3754,0.3854,0.4001,0.3911,0.3962,0.3922,0.3875,0.3797,0.423,0.3512,0.3448,0.3421,0.3433,0.3402,0.3406,0.3409,0.3412,0.3414,0.296,0.2964,0.2998,0.3025,0.3064,0.308,0.308,0.3169,0.3254,0.3357,0.3561,0.3599,0.3674,0.3614,0.3516,0.3438,0.3702,0.3512,0.3523,0.354,0.3453,0.3392,0.3319,0.3323,0.3327,0.333,0.3332,0,0.2874,0.2879,0.2896,0.2907,0.2879,0.2957,0.2998,0.296,0.2979,0.3125,0.3219,0.3024,0.3006,0.3066,0.2897,0.2915,0.2831,0.2778,0.2631,0.2682,0.2727,0.2591,0.2232,0.2228,0.2224,0.222,0,0,0.2827,0.279,0.2787,0.2706,0.2711,0.2639,0.2629,0.2604,0.2653,0.2635,0.2644,0.2885,0.3009,0.2576,0.2539,0.2352,0.2481,0.2258,0.3156,0.3037,0.3075,0.3187,0.3043,0,0,0,0,0]},{"header":{"parameterUnit":"m.s-1","parameterCategory":2,"la1":30.2991,"la2":30.254,"lo1":-89.0895,"lo2":-89.0444,"dy":0.0017,"dx":0.0017,"nx":28,"ny":28,"refTime":"2024-02-05T03:00:00:Z","depth":"2","parameterNumber":3,"parameterNumberName":"V-component_of_CURRENTS"},"data":[0,0,0,0,0,0,0,0,0,0,0,0,0,0,0,0,0,0,0,0,0,0,0,0,0,0,0,0,0,0,0,0,0,0,0,0,0,0,0,0,0,0,0,0,0,0,0,0,0,0,0,0,0,0,0,0,0,0,0.0272,0.0271,0,0.0222,0.0221,0.022,0.0181,0.0181,0.0181,0.018,0.0111,0.011,0.0108,0,0,0,0,0,0,0,0,0,0,0,0,0,0.0272,0.0272,0.0272,0.0271,0.0271,0.0222,0.0221,0.022,0.0181,0.0181,0.0181,0.018,0.0112,0.011,0.0108,0,0,0,0,0,0,0,0,0,0,0,0,0,0.025,0.0272,0.0272,0.0246,0.0244,0.0222,0.0221,0.022,0.0181,0.0181,0.018,0.018,0.0113,0.011,0.0108,0.01,0,0,0.01,0.0099,0,0,0,0,0,0,0,0,0.0252,0.025,0.0251,0.0248,0.0245,0.0209,0.0196,0.0179,0.0181,0.0203,0.018,0.018,0.0143,0.0138,0.0128,0.0097,0.0094,0.01,0.0099,0.0098,0.0097,0,0,0,0,0,0,0,0.0253,0.0252,0.025,0.025,0.0247,0.0217,0.0214,0.0192,0.0174,0.0201,0.0199,0.0196,0.0141,0.013,0.0126,0.0093,0.01,0.0098,0.0097,0.0096,0.005,0.005,0,0,0,0,0,0,0.0267,0.0254,0.0252,0.0249,0.0249,0.0217,0.0214,0.0219,0.0175,0.0168,0.0196,0.0194,0.0135,0.0129,0.0123,0.0125,0.0098,0.0095,0.0094,0.005,0.005,0.005,0,0,0,0,0,0,0.0267,0.0267,0.0254,0.0251,0.0247,0.0218,0.0224,0.0219,0.021,0.0172,0.0164,0.0195,0.0134,0.0127,0.0112,0.0122,0.0094,0.0092,0.005,0.005,0.005,0.0121,0,0,0,0,0,0,0.0267,0.0268,0.0276,0.0252,0.0248,0.0252,0.0225,0.0218,0.021,0.0207,0.0168,0.0161,0.0133,0.0116,0.0109,0.0118,0.009,0.0049,0.005,0.005,0.0118,0.0123,0.0128,0,0,0,0,0,0.0268,0.0286,0.0277,0.0277,0.0261,0.0253,0.0248,0.0224,0.021,0.0214,0.0186,0.0162,0.0114,0.0114,0.0107,0.0115,0.0049,0.005,0.005,0.0116,0.0122,0.0128,0,0,0,0,0,0,0.0289,0.0283,0.0273,0.0289,0.0275,0.0247,0.0247,0.023,0.0211,0.0206,0.0168,0.0159,0.0148,0.0122,0.0123,0.0102,0.0076,0.0075,0.0129,0.0134,0.0139,0.0164,0.0088,0,0,0,0,0,0.0299,0.0312,0.0296,0.0306,0.0304,0.0276,0.0269,0.0253,0.0232,0.0223,0.0196,0.0166,0.0143,0.0133,0.0107,0.01,0.0066,0.0098,0.0103,0.0107,0.0121,0.0075,0.0077,0.0052,0.0052,0.0052,0,0,0.0309,0.0308,0.0314,0.0312,0.0298,0.0309,0.0271,0.0266,0.0274,0.0219,0.0219,0.0183,0.0144,0.0135,0.0127,0.0116,0.0096,0.0108,0.0112,0.0124,0.0076,0.0078,0.0081,0.0053,0.0052,0.0052,0,0,0.0339,0.0335,0.0357,0.0353,0.0343,0.0331,0.0334,0.0311,0.0299,0.0292,0.0254,0.0227,0.0194,0.0169,0.0152,0.0169,0.0122,0.0158,0.0206,0.0161,0.0163,0.0164,0.0124,0.0121,0.0162,0.0162,0.0163,0,0.0349,0.038,0.036,0.0379,0.0387,0.0349,0.0375,0.0358,0.0332,0.033,0.0302,0.0249,0.0212,0.0202,0.0206,0.0182,0.015,0.0189,0.0169,0.0169,0.0169,0.0127,0.0123,0.0166,0.0166,0.0165,0.0165,0,0.0397,0.042,0.0432,0.0451,0.0454,0.0468,0.045,0.0448,0.0426,0.0405,0.0383,0.0324,0.0296,0.0273,0.0246,0.0233,0.0207,0.0179,0.0157,0.0176,0.013,0.0125,0.0171,0.017,0.0169,0.0168,0,0,0.0431,0.0462,0.0469,0.0496,0.0496,0.0509,0.0522,0.0529,0.0548,0.0493,0.0503,0.0442,0.0401,0.0379,0.033,0.0288,0.0254,0.0243,0.0239,0.0211,0.0158,0.0138,0.013,0.0221,0.022,0.022,0.0126,0,0.0478,0.0541,0.054,0.06,0.0633,0.0612,0.0634,0.0629,0.0611,0.0608,0.053,0.0516,0.0444,0.0432,0.0377,0.029,0.0243,0.0282,0.0137,0.0134,0.012,0.0124,0.0158,0.0077,0.012,0.0119,0.0118,0,0.0535,0.0572,0.0643,0.0691,0.0704,0.0733,0.0771,0.0784,0.0762,0.0743,0.0701,0.0638,0.0575,0.0505,0.036,0.0389,0.0286,0.0205,0.0198,0.0156,0.0104,0.0064,0.0065,0.0108,0.0109,0.011,0.0111,0,0.0588,0.0649,0.0715,0.0731,0.0774,0.0804,0.0827,0.083,0.0862,0.0834,0.0842,0.0741,0.0704,0.0557,0.0387,0.0374,0.0219,0.0177,0.0059,0.0055,0.0044,0.0042,0.0071,0.0071,0.0072,0.0072,0.0072,0,0.065,0.07,0.0751,0.0787,0.0876,0.0875,0.0957,0.0961,0.0979,0.1034,0.092,0.093,0.0716,0.0598,0.0423,0.0232,0.0242,0.0073,0.0032,0.0069,0.007,0.0066,0.0067,0.0068,0.0069,0.007,0.007,0,0.0703,0.073,0.0812,0.0876,0.0907,0.0972,0.1058,0.1113,0.1112,0.1179,0.1176,0.1077,0.0926,0.0697,0.0465,0.0298,0.0104,0.003,0.009,0.0058,-0.0042,-0.0037,-0.0112,-0.0113,-0.0114,-0.0115,-0.0116,0,0.0735,0.0785,0.0887,0.0946,0.0984,0.1078,0.1147,0.1184,0.1255,0.128,0.1322,0.1196,0.1133,0.0773,0.0454,0.0141,0.0098,-0.0034,-0.0057,-0.0027,-0.006,-0.0053,-0.0046,-0.005,-0.005,-0.0051,-0.0051,0,0.08,0.0836,0.0906,0.1034,0.1125,0.1235,0.1339,0.1417,0.1471,0.1527,0.1574,0.1523,0.1181,0.0868,0.0431,0.0225,0.0015,-0.0048,-0.0035,-0.0003,0.0024,-0.0006,0.0,-0.0053,-0.0052,-0.0052,-0.0052,-0.0052,0.0848,0.0911,0.1006,0.1131,0.124,0.138,0.1484,0.1597,0.1731,0.1821,0.1765,0.1695,0.1328,0.0774,0.0388,-0.0013,0.0014,-0.0123,-0.012,-0.0117,-0.0087,-0.0063,-0.0151,-0.0151,-0.0151,-0.0152,-0.0152,0,0.0907,0.0979,0.1093,0.1241,0.1368,0.1423,0.1605,0.1713,0.1885,0.1949,0.1984,0.1638,0.1268,0.0833,0.0238,-0.0109,-0.013,-0.0218,-0.0172,-0.0166,-0.0162,-0.0134,-0.0211,-0.0212,-0.0213,-0.0215,0,0,0.0936,0.1048,0.111,0.1324,0.1434,0.162,0.1733,0.1896,0.1994,0.2067,0.2024,0.1926,0.1401,0.096,0.0477,0.0126,0.0066,0.0065,0.0156,0.0275,0.0282,-0.0061,-0.0004,0,0,0,0,0]}],[{"header":{"parameterUnit":"m.s-1","parameterCategory":2,"la1":30.2991,"la2":30.254,"lo1":-89.0895,"lo2":-89.0444,"dy":0.0017,"dx":0.0017,"nx":28,"ny":28,"refTime":"2024-02-05T03:00:00:Z","depth":"4","parameterNumber":2,"parameterNumberName":"U-component_of_CURRENTS"},"data":[0,0,0,0,0,0,0,0,0,0,0,0,0,0,0,0,0,0,0,0,0,0,0,0,0,0,0,0,0,0,0,0,0,0,0,0,0,0,0,0,0,0,0,0,0,0,0,0,0,0,0,0,0,0,0,0,0,0,0.2148,0.2149,0,0.2219,0.2219,0.222,0.2283,0.2283,0.2284,0.2285,0.2374,0.2375,0.2377,0,0,0,0,0,0,0,0,0,0,0,0,0,0.2059,0.206,0.2148,0.2149,0.215,0.2219,0.222,0.222,0.2282,0.2284,0.2285,0.2286,0.2373,0.2375,0.2377,0,0,0,0,0,0,0,0,0,0,0,0,0,0.2108,0.206,0.2148,0.2191,0.2196,0.2219,0.222,0.222,0.2282,0.2284,0.2285,0.2286,0.2373,0.2375,0.2377,0.2362,0,0,0.2384,0.2385,0,0,0,0,0,0,0,0,0.2105,0.2111,0.2184,0.2188,0.2194,0.2246,0.2221,0.227,0.2282,0.2247,0.2285,0.2287,0.2333,0.2339,0.2345,0.2366,0.237,0.2384,0.2385,0.2386,0.2387,0,0,0,0,0,0,0,0.2102,0.2108,0.2174,0.2185,0.2191,0.2205,0.2213,0.223,0.2279,0.225,0.2255,0.2267,0.2336,0.2343,0.2348,0.2371,0.2384,0.2386,0.2387,0.2388,0.2522,0.2524,0,0,0,0,0,0,0.2097,0.2105,0.2171,0.2176,0.2155,0.2205,0.2215,0.2225,0.2279,0.2289,0.2265,0.2269,0.2338,0.2345,0.2351,0.2458,0.2386,0.2388,0.239,0.252,0.2523,0.2525,0,0,0,0,0,0,0.2095,0.2102,0.2169,0.2144,0.2154,0.2206,0.2217,0.2226,0.2281,0.2291,0.2301,0.2317,0.234,0.2348,0.2411,0.2458,0.2389,0.2391,0.2517,0.2521,0.2524,0.2595,0,0,0,0,0,0,0.2092,0.2101,0.213,0.2144,0.2155,0.221,0.2216,0.2227,0.2284,0.2291,0.2337,0.2344,0.2341,0.2408,0.2413,0.2459,0.2393,0.2514,0.2519,0.2523,0.259,0.26,0.2609,0,0,0,0,0,0.2088,0.2111,0.2131,0.214,0.2186,0.2212,0.222,0.2259,0.2285,0.2313,0.2353,0.2345,0.2438,0.2411,0.2417,0.2465,0.2512,0.2518,0.2522,0.2585,0.2598,0.2609,0,0,0,0,0,0,0.2089,0.2121,0.2142,0.2176,0.2208,0.2224,0.2261,0.2285,0.2337,0.236,0.237,0.238,0.2454,0.245,0.242,0.2518,0.2476,0.2482,0.2522,0.2534,0.2543,0.2552,0.2395,0,0,0,0,0,0.2101,0.2133,0.2159,0.2193,0.2212,0.2247,0.2273,0.23,0.2335,0.2362,0.2395,0.2434,0.247,0.2497,0.2524,0.2572,0.2573,0.2609,0.2619,0.2627,0.264,0.2679,0.2693,0.2542,0.2541,0.2541,0,0,0.2113,0.2136,0.2156,0.2197,0.2228,0.2261,0.2267,0.2319,0.2361,0.2362,0.2446,0.2474,0.2493,0.2552,0.2585,0.2561,0.2673,0.2634,0.264,0.2649,0.2686,0.27,0.2713,0.2545,0.2544,0.2544,0,0,0.2131,0.2172,0.22,0.2231,0.2285,0.2304,0.233,0.2375,0.2417,0.2484,0.2504,0.2563,0.2614,0.2639,0.2655,0.2735,0.2725,0.2752,0.2807,0.2845,0.2857,0.2868,0.289,0.2902,0.2753,0.2754,0.2754,0,0.215,0.2182,0.2214,0.2248,0.2283,0.2329,0.2367,0.2409,0.2476,0.2515,0.2525,0.2632,0.2653,0.2723,0.2758,0.2758,0.2774,0.2757,0.2857,0.2868,0.2878,0.2897,0.2909,0.2758,0.2757,0.2757,0.2756,0,0.2172,0.222,0.2241,0.2299,0.2341,0.2384,0.2438,0.2501,0.2557,0.2595,0.2695,0.2728,0.2791,0.281,0.2812,0.2901,0.2888,0.2865,0.2823,0.2897,0.2913,0.2925,0.2763,0.2762,0.2761,0.276,0,0,0.2151,0.224,0.2253,0.2291,0.2375,0.2402,0.249,0.2565,0.2634,0.2706,0.2788,0.2862,0.2896,0.2918,0.2935,0.2973,0.306,0.2962,0.2962,0.2976,0.3146,0.2952,0.2946,0.3059,0.3062,0.3064,0.3128,0,0.2163,0.2225,0.2274,0.2351,0.2385,0.2464,0.2538,0.2621,0.2698,0.279,0.2849,0.2937,0.2931,0.2984,0.3023,0.306,0.3096,0.3045,0.3078,0.3079,0.2892,0.2954,0.3072,0.3136,0.3139,0.3141,0.3142,0,0.2158,0.2203,0.2276,0.2376,0.2403,0.2468,0.2596,0.2668,0.28,0.2868,0.2963,0.3015,0.3114,0.3088,0.3182,0.3155,0.3166,0.3175,0.3177,0.2979,0.2907,0.3048,0.3163,0.3162,0.316,0.3159,0.3157,0,0.21,0.2201,0.2261,0.2296,0.2419,0.2488,0.2566,0.27,0.2777,0.2934,0.3005,0.3114,0.3186,0.3228,0.3262,0.3242,0.3339,0.33,0.3131,0.3117,0.3241,0.3228,0.3357,0.3357,0.3357,0.3357,0.3357,0,0.2064,0.2118,0.225,0.228,0.2374,0.2472,0.2591,0.2689,0.2837,0.2917,0.3048,0.3116,0.323,0.3291,0.3301,0.325,0.3371,0.3152,0.3123,0.3269,0.3259,0.3249,0.3235,0.3359,0.3359,0.3358,0.3358,0,0.1985,0.2072,0.2151,0.2295,0.2351,0.2422,0.2599,0.2665,0.2827,0.2939,0.2998,0.3156,0.3231,0.3303,0.3375,0.3275,0.3262,0.3211,0.3376,0.3355,0.3006,0.2996,0.3021,0.3015,0.301,0.3005,0.3002,0,0.1943,0.1978,0.2146,0.2197,0.2275,0.2398,0.2472,0.2649,0.2716,0.2926,0.2952,0.3102,0.3178,0.3118,0.3217,0.3215,0.3175,0.3138,0.3057,0.3003,0.2974,0.2973,0.297,0.2993,0.2992,0.2991,0.2989,0,0.1862,0.1949,0.2013,0.2121,0.2213,0.2296,0.2416,0.2452,0.2633,0.2802,0.2839,0.2876,0.2948,0.2992,0.3014,0.3007,0.3145,0.3082,0.3092,0.3015,0.2969,0.2945,0.2949,0.2971,0.2973,0.2975,0.2976,0,0.1812,0.1838,0.1937,0.2013,0.2117,0.2147,0.2235,0.2298,0.2388,0.2606,0.2615,0.2764,0.2917,0.2886,0.291,0.2888,0.2837,0.2723,0.2751,0.2772,0.266,0.2563,0.2423,0,0,0,0,0,0.1743,0.1749,0.1812,0.1876,0.1967,0.2028,0.2166,0.2252,0.2428,0.2384,0.2492,0.2546,0.2577,0.2666,0.2592,0.2808,0.2855,0.2709,0.274,0.2869,0.289,0.278,0,0,0,0,0,0,0.1693,0.1748,0.1761,0.1739,0.1753,0.1831,0.1912,0.2034,0.2025,0.2213,0.2249,0.2386,0.2466,0.2589,0.2541,0.2565,0.253,0.2813,0.2806,0.2857,0.2876,0.2893,0.2788,0,0,0,0,0]},{"header":{"parameterUnit":"m.s-1","parameterCategory":2,"la1":30.2991,"la2":30.254,"lo1":-89.0895,"lo2":-89.0444,"dy":0.0017,"dx":0.0017,"nx":28,"ny":28,"refTime":"2024-02-05T03:00:00:Z","depth":"4","parameterNumber":3,"parameterNumberName":"V-component_of_CURRENTS"},"data":[0,0,0,0,0,0,0,0,0,0,0,0,0,0,0,0,0,0,0,0,0,0,0,0,0,0,0,0,0,0,0,0,0,0,0,0,0,0,0,0,0,0,0,0,0,0,0,0,0,0,0,0,0,0,0,0,0,0,0.025,0.025,0,0.0221,0.0221,0.0221,0.02,0.02,0.02,0.02,0.0157,0.0156,0.0155,0,0,0,0,0,0,0,0,0,0,0,0,0,0.0244,0.0245,0.025,0.025,0.025,0.0222,0.0221,0.0221,0.02,0.02,0.02,0.02,0.0157,0.0156,0.0155,0,0,0,0,0,0,0,0,0,0,0,0,0,0.0233,0.0245,0.0251,0.0237,0.0236,0.0222,0.0221,0.022,0.02,0.02,0.02,0.02,0.0158,0.0156,0.0154,0.0146,0,0,0.0149,0.0149,0,0,0,0,0,0,0,0,0.0234,0.0234,0.0239,0.0238,0.0237,0.0215,0.0203,0.0195,0.02,0.0213,0.02,0.02,0.0176,0.0173,0.0166,0.0144,0.0142,0.0149,0.0148,0.0148,0.0147,0,0,0,0,0,0,0,0.0235,0.0235,0.0238,0.0239,0.0237,0.0218,0.0216,0.0201,0.0194,0.0212,0.021,0.0209,0.0175,0.0168,0.0165,0.0142,0.0149,0.0148,0.0147,0.0146,0.0116,0.0117,0,0,0,0,0,0,0.0243,0.0236,0.0239,0.0237,0.0236,0.0218,0.0216,0.0221,0.0195,0.0191,0.0209,0.0208,0.0171,0.0167,0.0163,0.0171,0.0148,0.0146,0.0145,0.0116,0.0116,0.0117,0,0,0,0,0,0,0.0243,0.0244,0.024,0.0236,0.0234,0.0219,0.0224,0.0221,0.022,0.0193,0.0189,0.0212,0.017,0.0166,0.0159,0.0168,0.0145,0.0144,0.0116,0.0116,0.0116,0.0173,0,0,0,0,0,0,0.0243,0.0244,0.0253,0.0237,0.0235,0.0241,0.0224,0.022,0.0219,0.0218,0.0194,0.0189,0.017,0.0162,0.0157,0.0165,0.0143,0.0116,0.0116,0.0116,0.0171,0.0175,0.0179,0,0,0,0,0,0.0243,0.0258,0.0254,0.0254,0.0247,0.0242,0.0239,0.0227,0.0219,0.0224,0.0208,0.019,0.016,0.0161,0.0156,0.0163,0.0116,0.0116,0.0116,0.0169,0.0175,0.0179,0,0,0,0,0,0,0.0259,0.0257,0.0252,0.0266,0.0258,0.0239,0.0243,0.0233,0.0223,0.0222,0.0196,0.019,0.0186,0.0166,0.0167,0.0154,0.0134,0.0133,0.0176,0.018,0.0184,0.0204,0.0141,0,0,0,0,0,0.0268,0.0279,0.0269,0.028,0.0279,0.0262,0.0259,0.025,0.0238,0.0233,0.0217,0.0197,0.0182,0.0176,0.0158,0.0155,0.0125,0.0155,0.0159,0.0162,0.0174,0.0132,0.0133,0.0118,0.0118,0.0118,0,0,0.0276,0.0277,0.0283,0.0284,0.0276,0.0287,0.026,0.026,0.0269,0.023,0.0238,0.0212,0.0184,0.018,0.0175,0.0166,0.0149,0.0163,0.0166,0.0176,0.0132,0.0134,0.0135,0.0118,0.0118,0.0118,0,0,0.03,0.03,0.0319,0.0318,0.0314,0.0307,0.0311,0.0297,0.0292,0.0291,0.0265,0.0247,0.0227,0.0208,0.0196,0.0211,0.0171,0.0203,0.0242,0.0201,0.0202,0.0202,0.0161,0.0158,0.0206,0.0206,0.0206,0,0.031,0.0335,0.0322,0.0338,0.0347,0.0321,0.0344,0.0334,0.032,0.0321,0.0303,0.0267,0.0241,0.0234,0.024,0.0221,0.0191,0.0228,0.0206,0.0206,0.0206,0.0164,0.0159,0.0209,0.0209,0.0209,0.0208,0,0.0346,0.0368,0.0379,0.0397,0.0402,0.0416,0.0405,0.0408,0.0396,0.0382,0.037,0.0327,0.0308,0.0291,0.0272,0.026,0.0238,0.0216,0.0197,0.0211,0.0165,0.016,0.0213,0.0212,0.0211,0.0211,0,0,0.037,0.04,0.0407,0.0432,0.0437,0.0449,0.0464,0.0472,0.0489,0.0453,0.0463,0.0421,0.0391,0.0375,0.0337,0.0301,0.0267,0.0266,0.0263,0.0232,0.0176,0.016,0.0152,0.0241,0.0241,0.024,0.0144,0,0.0406,0.0458,0.0461,0.0515,0.0542,0.0532,0.0553,0.0553,0.0542,0.0542,0.0484,0.0477,0.0424,0.0418,0.0371,0.0298,0.0256,0.0296,0.0163,0.0159,0.0148,0.0146,0.0239,0.014,0.0138,0.0137,0.0136,0,0.0447,0.0479,0.054,0.0586,0.0598,0.0627,0.0662,0.0677,0.0662,0.065,0.0619,0.0571,0.052,0.047,0.0344,0.0372,0.0285,0.0217,0.0211,0.0175,0.0133,0.0122,0.0125,0.0126,0.0127,0.0128,0.0128,0,0.048,0.0537,0.0594,0.061,0.0653,0.0685,0.0709,0.0715,0.0743,0.0724,0.0731,0.0648,0.0618,0.0497,0.0355,0.0351,0.0205,0.0177,0.0076,0.0073,0.0092,0.0092,0.0084,0.0085,0.0085,0.0085,0.0085,0,0.0519,0.0566,0.0623,0.0653,0.0732,0.074,0.0812,0.082,0.0838,0.0874,0.0796,0.079,0.0625,0.0519,0.0378,0.0212,0.0217,0.0086,0.0049,0.0116,0.0121,0.0087,0.0088,0.0081,0.0082,0.0083,0.0084,0,0.0547,0.058,0.0653,0.0719,0.0753,0.081,0.0895,0.0938,0.0946,0.0989,0.0989,0.09,0.0761,0.058,0.038,0.0254,0.0089,0.0026,0.0117,0.0086,-0.0023,-0.0018,-0.0094,-0.0095,-0.0096,-0.0097,-0.0098,0,0.0563,0.0606,0.0709,0.0762,0.0802,0.0891,0.0952,0.0994,0.1042,0.1054,0.1073,0.0962,0.0875,0.0585,0.0384,0.0105,0.0061,-0.0029,-0.0032,-0.0013,-0.0041,-0.0033,-0.0027,-0.01,-0.01,-0.0101,-0.0101,0,0.0594,0.0636,0.0698,0.0813,0.0897,0.0993,0.1082,0.1126,0.1169,0.1177,0.1144,0.0993,0.0831,0.0592,0.0375,0.0173,0.0027,-0.0042,-0.0041,-0.0044,-0.0021,-0.0046,-0.0038,-0.0105,-0.0104,-0.0104,-0.0104,0,0.0619,0.0667,0.0754,0.0857,0.0966,0.1065,0.1109,0.1165,0.1214,0.122,0.1205,0.1028,0.0929,0.0627,0.0428,0.0226,0.0168,0.0096,0.0088,0.009,0.0165,0.0223,0.0187,0,0,0,0,0,0.0637,0.0693,0.0787,0.0901,0.1009,0.1081,0.1184,0.1217,0.1259,0.1247,0.1231,0.1078,0.0785,0.0659,0.0455,0.0387,0.0121,0.0138,0.0032,-0.0126,-0.0122,-0.0067,0,0,0,0,0,0,0.0646,0.0733,0.0784,0.0924,0.1006,0.1133,0.1204,0.1233,0.1227,0.1232,0.1082,0.1017,0.0732,0.0903,0.0449,0.0388,0.0289,0.0006,0.0001,-0.0129,-0.0125,-0.0121,-0.0063,0,0,0,0,0]}]]